Погода в Пихтовке

Россия / Кемеровская область (Кузбасс)     56°39′12″N   88°04′39″E
темп.,
°C
ветер,
м/с
пор.,
м/с
влажн.,
%
обл.,
%
осадки,
мм/ч
давл.,
гПа
погр.,
м
25 января, вт
вт2501:00−16юз3896100 0.1 1036264
04:00−17юз3996100 0.1 1035310
07:00−17юз3896100 0.2 1034304
10:00−16юз3895100 0.1 1033334
13:00−14юз3589100 0.2 1032435
16:00−13юз3691100 0.2 1030483
19:00−14ююз279598 0.4 1030362
22:00−13ююз3895100 0.3 1030372
26 января, ср
ср2601:00−13ююз3895100 0.7 1030429
04:00−12ююз3895100 0.4 1029462
07:00−12ююз3894100 0.8 1029447
10:00−13ююз3795100 0.5 1030360
13:00−11юз2591100 1.0 1029430
16:00−10ююз1393100 0.4 1029382
19:00−11ю1297100 0.9 103054
22:00−13ю1198100 0.3 103111
27 января, чт
чт2701:00−15ююз1198100 0.5 10329
04:00−15ююз1198100 0.2 103210
07:00−16ююз1198100 0.4 103412
10:00−15юз1297100 0.1 103577
13:00−12юз1289100 0.2 1036383
16:00−12юз1290100 0.1 1036339
19:00−19ююз1110071 0.1 10389
22:00−22ююв11100100 0.0 10399
28 января, пт
пт2801:00−23ююв21100100 0.0 103913
04:00−24ююв11100100 0.0 104010
07:00−25ююв21100100 0.1 104014
10:00−24ююв11100100 0.0 104032
13:00−14ю139196 0.0 1038238
16:00−12юв139376 0.0 1037202
19:00−21ююв1110089 0.0 10389
22:00−24юв1110098 0.0 10379
29 января, сб
сб2901:00−25ююв1110068 0.0 10379
04:00−25ююв11100100 0.0 103613
07:00−20ю1298100 0.0 103645
10:00−19ююв1296100 0.0 103644
13:00−13ююз128867 0.0 1035213
16:00−12ю119074 0.0 1035115
19:00−20ю1110053 0.0 10369
22:00−22ююв1110063 0.0 10369